Terug naar catalogus

DELTA 1 DEB

LostSSO
NORAD 8533·DEBRIS·🇺🇸 United States

Gelanceerd Jul 23, 1972 vanaf Vandenberg Space Force Base

Loading…

Volgende Passages (komende 24 uur)

TLE

VerouderdSource: Space-Track

Epoch: Jan 29, 2021, 07:16 UTC

1  8533U 72058GG  21029.30337373 -.00000320  00000-0 -84100-4 0  9998
2  8533  98.4839 102.4890 0003099 150.3530 209.7835 14.41969479316305

Volg DELTA 1 DEB in realtime met AllMySat

Download on the App Store